Showing default

IRIDE-MS1-EAG2-9, 68449

Orbit data source: Space-Track

IRIDE-MS1-EAG2-9, 68449 is an Italian payload satellite in SSO that was launched on Mon, 30 Mar 2026 UTC via an FALCON 9 launch vehicle from the Air Force Western Test Range (AFWTR). Payload-class satellites include a variety of spacecraft equipped with specific instruments for various scientific and technological missions. These include communications satellites like Starlink; space stations such as the ISS; scientific satellites like the Hubble; Earth observation satellites from companies like Planet Labs, Umbra, and HawkEye 360; GPS; miniature CubeSats for education and research; and military/defense satellites.

Loading next visibility...
Identifier
68449, 2026-067AK
Orbit
SSO
Country
Flag of ITIT
Related business
Manufacturer
OHB-I
Mission
Operational Commercial Technology
Bus & Motor
EAGLET, Unknown motor
Mass
25 kg wet, 25 kg dry
Launch date (UTC)
2026-03-30 (5 months ago)
Launch vehicle
FALCON 9
Launch site
Air Force Western Test Range (AFWTR)
Object type
Payload
Rocket body
Debris
Shape & HBR
Box + 2 Pan, 1.0 m
Radar Cross Section
0.368 m², Medium (>0.1 m² and < 1m²)

Expand to show TLE details & history
Last TLE update: 12 hours ago

TLE from 12 hours ago
0 IRIDE-MS1-EAG2-9
1 68449U 26067AK  26254.42269704  .00005742  00000-0  27756-3 0  9993
2 68449  97.4597 211.5895 0005741 114.4321 245.7513 15.18995515 25023
Epoch: 2026-09-11T10:08Z
TLE epoch observation values (Epoch: 2026-09-11T10:08:41.024Z)
Latitude
Longitude
68.97229°
Altitude
513.589 km
Speed
7.606 km/s
True Right ascension
14h 06m 21s
True Declination
0° 00' 00"
Sunlit
Object was in daylight at epoch
Visualization orbit readout
Latitude
Unknown
Longitude
Unknown
Altitude
Unknown
Speed
Unknown
Apparent Right ascension
Unknown
Apparent Declination
Unknown
Sunlit
N/A
Visualization observer readout
Local Sidereal Time
14:42:27
Azimuth
Unknown
Elevation
Unknown
Doppler factor
Unknown
Orbital elements
Apogee altitude
509.797 km
Perigee altitude
501.892 km
Semi-major axis
6,883.982 km
Eccentricity
0.00057
Inclination
97.4597°
RAAN
211.5895°
Arg. of periapsis
114.4321°
True anomaly
245.69133°
Mean anomaly
245.7513°
Eccentric anomaly
245.72132°
Mean motion
3.8 °/min
Orbital period
94.74 mins
BSTAR
0.00027756
Loading maneuver chart data...
Computing Atmospheric mass density...
Loading historical data...
Loading historical data...
Loading historical data...
Loading historical data...
Loading historical data...
Loading historical data...
Loading historical data...

Documentation

Showing up to 5 results
|